Big Rapids, MI

3:16 AM EDT on September 29, 2016 (GMT -0400)
Roben-Hood

Weather History for KRQB - March, 2013

Change the Weather History Date:

Monday, March 18, 2013

  Actual Average Record
Temperature  
Mean Temperature 26 °F -  
Max Temperature 33 °F 40 °F 75 °F (2012)
Min Temperature 19 °F 20 °F 1 °F (1993)
Degree Days  
Heating Degree Days 39    
Moisture  
Dew Point 20 °F    
Average Humidity 77    
Maximum Humidity 96    
Minimum Humidity 59    
Precipitation  
Precipitation 0.00 in - - ()
Sea Level Pressure  
Sea Level Pressure 29.77 in    
Wind  
Wind Speed 7 mph (ESE)    
Max Wind Speed 15 mph    
Max Gust Speed 22 mph    
Visibility 7 miles    
Events Snow    
Averages and records for this station are not official NWS values.
T = Trace of Precipitation, MM = Missing Value Source: NWS Daily Summary

Daily Weather History Graph

Daily Weather History Graph

Search for Another Location

Airport or City:

Trip Planner

Search our weather history database for the weather conditions in past years. The results will help you decide how hot, cold, wet, or windy it might be!

Date:

Astronomy

Mar. 18, 2013 Rise Set
Actual Time 7:48 AM EDT 7:52 PM EDT
Civil Twilight 7:19 AM EDT 8:20 PM EDT
Nautical Twilight 6:46 AM EDT 8:54 PM EDT
Astronomical Twilight 6:12 AM EDT 9:28 PM EDT
Moon 11:36 AM EDT (3/18) 2:01 AM EDT (3/18)
Length of Visible Light 13h 01m
Length of Day
12h 03m
Waxing Crescent, 40% of the Moon is Illuminated
Mar 18
Waxing Crescent
Mar 19
First Quarter
Mar 27
Full
Apr 3
Last Quarter
Apr 10
New

Hourly Weather History & Observations

Time (EDT) Temp. Windchill Dew Point Humidity Pressure Visibility Wind Dir Wind Speed Gust Speed Precip Events Conditions
12:14 AM 20.3 °F 11.5 °F 10.4 °F 66% 30.13 in 10.0 mi ESE 6.9 mph - N/A   Clear
12:34 AM 20.3 °F 12.5 °F 11.1 °F 68% 30.13 in 10.0 mi East 5.8 mph - N/A   Clear
12:53 AM 20.3 °F 13.8 °F 11.5 °F 69% 30.13 in 10.0 mi ESE 4.6 mph - N/A   Clear
1:14 AM 20.3 °F 11.5 °F 11.8 °F 70% 30.11 in 10.0 mi East 6.9 mph - N/A   Clear
1:34 AM 20.1 °F 11.3 °F 12.0 °F 71% 30.11 in 10.0 mi East 6.9 mph - N/A   Clear
2:14 AM 19.8 °F 11.9 °F 12.0 °F 72% 30.09 in 10.0 mi East 5.8 mph - N/A   Clear
2:34 AM 19.4 °F 11.5 °F 12.0 °F 73% 30.08 in 10.0 mi East 5.8 mph - N/A   Clear
2:53 AM 19.4 °F 9.5 °F 12.0 °F 73% 30.08 in 10.0 mi East 8.1 mph - N/A   Clear
3:14 AM 19.4 °F 9.5 °F 12.0 °F 73% 30.07 in 10.0 mi ESE 8.1 mph - N/A   Clear
3:34 AM 19.2 °F 10.2 °F 12.0 °F 74% 30.06 in 10.0 mi East 6.9 mph - N/A   Clear
3:53 AM 19.2 °F 10.2 °F 11.8 °F 73% 30.04 in 10.0 mi East 6.9 mph - N/A   Clear
4:14 AM 19.4 °F 7.9 °F 12.0 °F 73% 30.03 in 10.0 mi ESE 10.4 mph - N/A   Clear
4:34 AM 19.8 °F 9.1 °F 12.0 °F 72% 30.03 in 10.0 mi ESE 9.2 mph - N/A   Clear
4:54 AM 19.8 °F 9.9 °F 12.0 °F 72% 30.02 in 10.0 mi East 8.1 mph - N/A   Clear
5:14 AM 19.8 °F 9.9 °F 12.0 °F 72% 30.01 in 10.0 mi East 8.1 mph - N/A   Clear
5:34 AM 19.9 °F 11.1 °F 12.0 °F 71% 30.01 in 10.0 mi ESE 6.9 mph - N/A   Clear
5:54 AM 20.1 °F 11.3 °F 12.2 °F 71% 29.99 in 10.0 mi East 6.9 mph - N/A   Clear
6:14 AM 20.3 °F 10.6 °F 12.6 °F 72% 29.98 in 10.0 mi ESE 8.1 mph 16.1 mph N/A   Clear
6:33 AM 20.7 °F 10.2 °F 12.7 °F 71% 29.96 in 10.0 mi East 9.2 mph 17.3 mph N/A   Clear
6:55 AM 20.3 °F 10.6 °F 12.9 °F 73% 29.95 in 10.0 mi ESE 8.1 mph - N/A   Clear
7:15 AM 21.0 °F 10.6 °F 13.6 °F 73% 29.95 in 10.0 mi ESE 9.2 mph - N/A   Clear
7:34 AM 21.2 °F 10.1 °F 13.8 °F 73% 29.94 in 10.0 mi ESE 10.4 mph - N/A   Clear
7:55 AM 21.7 °F 11.5 °F 14.2 °F 73% 29.92 in 10.0 mi ESE 9.2 mph - N/A   Clear
8:15 AM 22.1 °F 12.0 °F 14.7 °F 73% 29.91 in 10.0 mi East 9.2 mph - N/A   Clear
8:34 AM 22.1 °F 12.0 °F 14.9 °F 74% 29.89 in 10.0 mi ESE 9.2 mph 17.3 mph N/A   Clear
8:55 AM 23.4 °F 14.3 °F 15.3 °F 71% 29.88 in 10.0 mi ESE 8.1 mph 17.3 mph N/A   Clear
9:15 AM 24.4 °F 14.2 °F 15.8 °F 70% 29.87 in 10.0 mi ESE 10.4 mph 19.6 mph N/A   Clear
9:35 AM 25.7 °F 16.4 °F 16.0 °F 67% 29.86 in 10.0 mi ESE 9.2 mph 17.3 mph N/A   Clear
9:55 AM 26.8 °F 14.9 °F 16.0 °F 64% 29.86 in 10.0 mi ESE 15.0 mph 21.9 mph N/A   Clear
10:15 AM 28.0 °F 17.0 °F 16.5 °F 62% 29.84 in 10.0 mi East 13.8 mph 19.6 mph N/A   Clear
10:35 AM 28.2 °F 18.9 °F 16.5 °F 62% 29.82 in 10.0 mi East 10.4 mph 16.1 mph N/A   Clear
10:55 AM 28.9 °F 18.6 °F 16.9 °F 61% 29.80 in 10.0 mi East 12.7 mph 18.4 mph N/A   Clear
11:15 AM 30.0 °F 21.1 °F 17.4 °F 59% 29.79 in 10.0 mi East 10.4 mph 18.4 mph N/A   Clear
11:35 AM 30.2 °F 19.3 °F 17.8 °F 60% 29.76 in 10.0 mi East 15.0 mph 21.9 mph N/A   Mostly Cloudy
11:55 AM 30.7 °F 22.6 °F 18.3 °F 60% 29.75 in 10.0 mi East 9.2 mph 19.6 mph N/A   Overcast
12:14 PM 31.1 °F 21.4 °F 18.5 °F 60% 29.73 in 10.0 mi ESE 12.7 mph 19.6 mph N/A   Overcast
12:35 PM 30.9 °F 22.2 °F 18.5 °F 60% 29.73 in 10.0 mi East 10.4 mph 21.9 mph N/A   Overcast
12:55 PM 30.7 °F 20.0 °F 19.2 °F 62% 29.73 in 10.0 mi ESE 15.0 mph 19.6 mph N/A   Overcast
1:15 PM 29.8 °F 19.8 °F 21.0 °F 70% 29.71 in 2.5 mi East 12.7 mph 18.4 mph N/A Snow Light Snow
1:35 PM 30.2 °F 20.2 °F 21.6 °F 70% 29.67 in 3.0 mi East 12.7 mph 19.6 mph N/A   Haze
1:55 PM 30.2 °F 19.8 °F 22.5 °F 73% 29.66 in 5.0 mi ESE 13.8 mph 20.7 mph N/A   Haze
2:15 PM 30.7 °F 22.0 °F 23.0 °F 73% 29.65 in 5.0 mi ESE 10.4 mph 17.3 mph N/A Snow Light Snow
2:35 PM 30.9 °F 22.8 °F 23.7 °F 75% 29.64 in 3.0 mi East 9.2 mph - N/A Snow Light Snow
2:54 PM 30.9 °F 22.2 °F 24.1 °F 76% 29.62 in 2.0 mi East 10.4 mph 20.7 mph N/A   Haze
3:15 PM 30.9 °F 22.2 °F 24.4 °F 77% 29.60 in 1.8 mi East 10.4 mph 16.1 mph N/A Snow Light Snow
3:34 PM 30.7 °F 22.0 °F 24.8 °F 79% 29.59 in 2.5 mi ESE 10.4 mph 17.3 mph N/A Snow Light Snow
3:55 PM 30.7 °F 22.6 °F 25.2 °F 80% 29.59 in 0.8 mi East 9.2 mph - N/A Snow Light Snow
4:15 PM 30.7 °F 24.9 °F 25.7 °F 82% 29.59 in 1.2 mi ESE 5.8 mph - N/A Snow Light Snow
4:35 PM 30.7 °F 27.3 °F 26.4 °F 84% 29.59 in 0.5 mi ESE 3.5 mph - N/A Snow Light Snow
4:55 PM 30.9 °F 27.5 °F 28.6 °F 91% 29.57 in 0.5 mi ESE 3.5 mph - N/A Snow Light Snow
5:15 PM 31.1 °F 27.7 °F 28.9 °F 92% 29.57 in 0.8 mi ESE 3.5 mph - N/A Snow Light Snow
5:35 PM 31.3 °F - 29.1 °F 92% 29.56 in 0.8 mi Calm Calm - N/A Snow Light Snow
5:55 PM 31.5 °F 28.1 °F 29.3 °F 92% 29.55 in 0.8 mi SE 3.5 mph - N/A Snow Light Snow
6:14 PM 31.5 °F - 29.5 °F 92% 29.55 in 0.8 mi Calm Calm - N/A Snow Snow
6:35 PM 31.5 °F - 29.8 °F 94% 29.54 in 0.5 mi Calm Calm - N/A Snow Snow
6:55 PM 31.5 °F 28.1 °F 29.8 °F 94% 29.54 in 1.0 mi SE 3.5 mph - N/A Snow Light Snow
7:15 PM 31.5 °F - 30.0 °F 94% 29.54 in 0.8 mi Calm Calm - N/A Snow Light Snow
7:35 PM 31.5 °F - 30.2 °F 95% 29.53 in 0.8 mi Calm Calm - N/A Snow Light Snow
7:55 PM 31.1 °F - 30.0 °F 96% 29.52 in 1.2 mi Calm Calm - N/A Snow Light Snow
8:15 PM 31.3 °F 27.9 °F 30.0 °F 95% 29.52 in 1.5 mi SSE 3.5 mph - N/A Snow Light Snow
8:35 PM 31.1 °F - 30.0 °F 96% 29.53 in 5.0 mi Calm Calm - N/A Snow Light Snow
8:55 PM 31.5 °F 28.1 °F 30.0 °F 94% 29.53 in 5.0 mi South 3.5 mph - N/A Snow Light Snow
9:15 PM 31.3 °F - 29.8 °F 94% 29.52 in 2.5 mi Calm Calm - N/A Snow Light Snow
9:35 PM 31.5 °F - 30.2 °F 95% 29.51 in 2.5 mi Calm Calm - N/A Snow Light Snow
9:55 PM 31.5 °F 28.1 °F 30.2 °F 95% 29.51 in 2.5 mi South 3.5 mph - N/A Snow Light Snow
10:15 PM 31.8 °F 26.2 °F 30.4 °F 94% 29.51 in 5.0 mi SSW 5.8 mph - N/A Snow Light Snow
10:35 PM 32.2 °F 25.8 °F 30.6 °F 94% 29.51 in 10.0 mi SW 6.9 mph - N/A   Overcast
10:55 PM 32.7 °F 27.3 °F 30.7 °F 92% 29.51 in 10.0 mi WSW 5.8 mph - N/A   Overcast
11:15 PM 33.1 °F 25.5 °F 30.2 °F 89% 29.51 in 10.0 mi WSW 9.2 mph 17.3 mph N/A   Overcast
11:55 PM 33.1 °F 26.1 °F 28.2 °F 82% 29.51 in 10.0 mi WSW 8.1 mph 17.3 mph N/A   Overcast